Theta_e
328 327 326 325 321 319 325 327 325 325 325 325 324 324 323 322 322 321 320 318 318 318 317 317 318 319 321 322 322 322 322 322 322 322 322 322 322 323 322 322 322 322 322 321 321 322 322 321 321 320 320 320 319 317 316 316 316 316 315 315 315 314 314 314 314 314 313 313 313 313 313 313 313 312 312 312 312 312 312 311 311 311 310 310 310
328 327 325 324 323 322 325 327 327 326 326 326 325 325 324 323 323 322 322 321 320 319 318 318 317 318 319 320 321 321 321 321 322 322 322 322 322 322 322 322 322 322 322 321 321 321 322 322 322 322 321 320 320 319 318 317 317 317 316 315 315 315 314 315 314 314 313 313 313 313 313 313 313 312 312 312 312 312 312 312 311 311 311 310 310
328 328 326 325 326 325 325 327 327 327 327 326 326 326 325 325 324 323 323 322 322 321 320 320 319 319 319 319 320 320 319 320 321 321 322 322 322 322 322 322 322 322 322 321 321 321 321 322 322 322 321 321 321 320 320 319 319 318 317 317 316 316 315 315 315 314 314 313 313 313 313 313 313 313 312 312 312 312 312 312 312 311 311 310 310
328 328 327 327 327 327 327 327 327 326 327 327 327 326 326 325 325 325 324 323 323 322 321 321 321 321 321 321 320 320 319 319 319 320 321 321 321 322 322 322 322 322 321 321 321 321 321 322 322 322 321 322 322 322 322 321 321 319 319 318 318 317 316 316 315 315 315 314 314 313 313 313 313 313 313 312 312 312 312 312 312 311 311 310 310
328 328 328 327 327 327 327 327 327 326 327 327 327 326 326 326 326 325 324 323 323 323 322 322 322 321 321 321 321 321 321 320 320 320 320 320 320 321 321 322 322 321 321 321 321 321 321 322 322 321 321 322 322 322 322 322 322 321 320 319 319 318 318 317 316 316 315 315 315 314 314 313 313 313 313 313 312 312 312 312 312 311 311 311 310
328 328 328 328 327 327 327 327 327 327 327 327 327 326 326 326 326 325 324 324 323 323 322 322 321 321 321 321 321 321 320 320 320 320 320 320 320 320 321 321 321 321 321 321 321 321 321 321 321 321 321 321 321 321 322 322 322 322 321 321 320 319 319 318 317 317 316 316 315 315 315 314 314 313 313 313 313 312 312 312 312 311 311 311 311
329 328 328 328 328 327 327 327 327 327 327 327 326 326 326 326 326 325 324 324 323 323 322 322 321 321 321 321 321 321 320 320 320 320 319 320 320 320 320 320 321 321 321 320 320 320 321 321 321 321 321 321 321 321 322 322 322 322 322 322 321 321 320 319 319 318 317 317 316 316 316 315 314 314 314 313 313 313 313 312 312 312 311 311 311
330 330 328 328 328 328 328 327 327 327 327 327 326 326 326 326 325 325 325 324 324 323 323 322 321 321 321 322 322 322 321 321 321 321 321 320 320 320 320 320 320 320 320 320 320 320 320 320 320 320 320 320 320 321 321 322 322 322 323 323 322 322 322 321 320 319 319 318 317 317 317 316 316 315 314 314 314 313 313 313 313 312 312 312 311
331 331 330 329 328 328 328 328 327 327 327 327 326 326 326 326 325 325 325 325 324 324 324 324 323 323 322 322 323 322 322 322 321 321 321 321 320 320 320 320 320 320 320 320 319 319 319 319 319 319 320 320 320 320 320 320 321 321 322 322 322 322 322 322 322 321 321 319 319 318 318 317 317 316 315 315 314 314 314 314 313 313 313 312 312
332 332 331 330 329 328 328 328 328 328 328 327 327 327 326 326 326 326 326 325 325 325 325 325 324 323 323 323 323 322 322 322 321 321 321 321 321 320 320 320 320 320 320 319 319 319 318 318 318 318 318 318 319 319 319 319 319 320 320 321 322 322 322 322 322 322 322 321 320 319 318 318 317 317 317 316 315 315 314 314 314 314 313 313 313
332 332 332 330 330 328 328 328 328 328 328 328 327 327 327 326 327 326 326 326 325 325 326 325 323 323 322 322 322 322 322 322 321 321 320 320 321 320 320 320 319 319 319 319 319 318 318 318 317 317 317 316 317 317 318 318 318 319 319 319 320 321 321 322 322 322 322 322 322 321 320 319 318 318 317 317 316 316 315 314 314 314 314 314 313
332 332 332 332 331 330 329 328 327 327 327 327 327 327 326 325 326 327 326 326 326 326 325 324 323 322 322 322 322 322 322 322 321 321 321 321 322 321 320 319 319 319 319 319 319 318 318 317 317 317 316 316 316 316 316 316 316 317 317 318 318 319 320 320 321 321 321 322 322 322 321 320 320 319 319 319 318 317 316 315 315 314 314 314 314
333 333 333 332 331 330 329 329 328 328 328 327 327 327 327 327 327 327 326 326 326 326 325 324 322 321 321 321 321 322 322 322 321 321 321 321 321 320 320 319 319 319 319 319 319 318 318 318 318 317 317 316 316 315 315 315 315 315 315 316 316 316 317 318 319 320 321 321 321 321 321 321 321 320 320 320 319 319 318 316 316 316 315 315 315
333 333 333 332 331 330 330 330 329 328 328 328 328 328 328 328 328 327 327 327 326 326 325 323 321 320 319 318 319 321 321 320 320 320 320 320 319 319 319 320 320 320 319 319 319 319 319 318 318 317 316 316 316 315 315 315 315 315 315 315 315 315 315 316 317 318 319 319 320 321 321 321 321 321 321 321 320 320 319 318 317 317 316 316 315
333 332 332 332 332 331 331 330 329 328 327 327 327 328 327 328 328 328 328 326 325 326 325 323 321 320 318 318 318 318 320 319 318 319 319 319 319 319 319 319 319 319 318 318 318 318 318 317 317 316 316 315 315 315 314 315 315 314 314 314 314 314 315 315 315 315 315 316 317 319 320 320 320 320 321 321 321 321 321 320 319 319 317 317 317
331 331 331 331 331 332 331 331 331 329 328 328 328 328 329 329 327 327 327 325 324 325 325 324 323 321 319 319 316 316 321 319 316 318 319 319 319 318 318 318 318 317 317 317 317 316 316 316 315 315 315 315 314 314 313 313 313 313 313 313 313 314 314 314 314 313 313 314 315 316 318 319 319 320 320 320 321 321 321 321 321 321 319 318 318
331 331 331 330 331 331 331 331 331 329 329 329 329 329 330 329 327 326 325 324 325 325 325 324 323 322 320 320 318 318 322 319 316 319 318 317 318 318 317 317 316 316 316 316 316 315 315 315 315 314 314 314 314 313 312 312 312 312 312 312 312 313 313 313 313 312 312 313 314 315 316 317 318 318 319 319 320 320 320 320 321 321 320 319 319
331 330 330 330 331 331 331 330 330 330 329 329 330 330 330 329 327 326 325 325 325 325 325 324 322 322 321 321 321 321 320 318 318 319 317 317 317 316 316 316 315 315 315 315 315 315 314 314 313 313 313 313 313 313 312 311 311 311 311 311 311 312 312 312 312 312 312 312 313 313 314 315 315 316 317 318 318 319 319 319 319 320 320 320 320
330 330 330 330 330 330 329 329 329 329 328 328 328 329 329 329 328 327 326 326 325 324 324 324 322 321 322 321 320 320 319 317 317 317 317 316 315 315 315 315 315 315 314 314 314 314 313 313 312 312 312 312 312 312 311 311 310 311 311 311 311 311 311 311 311 311 311 311 311 312 312 313 314 314 316 317 317 317 317 318 318 319 320 320 320
329 328 328 327 328 328 328 329 329 328 327 327 327 327 327 327 327 326 325 324 325 324 324 323 322 321 321 320 319 319 319 317 316 315 315 314 314 315 315 315 314 314 313 313 313 312 312 312 312 312 312 312 311 311 311 310 310 310 310 310 310 310 310 310 310 310 310 310 310 310 311 312 314 314 314 315 315 316 316 316 316 317 318 318 318
327 326 325 325 326 328 328 329 328 328 328 327 325 325 325 324 324 324 322 322 323 323 322 322 321 320 320 319 319 318 318 317 316 314 312 313 314 314 313 313 313 312 312 311 311 311 311 311 311 311 311 310 310 310 310 310 310 310 310 309 309 309 309 310 310 310 309 310 310 309 310 310 312 313 313 314 314 315 315 315 315 316 317 317 318
325 325 324 325 326 326 326 326 326 326 326 326 324 324 323 323 323 323 322 322 322 321 321 321 320 320 320 319 318 317 316 315 315 313 311 311 311 311 310 311 311 311 311 311 311 310 309 309 309 309 309 309 309 309 309 309 309 308 308 308 308 309 309 309 309 309 309 309 309 309 309 309 310 310 311 312 313 313 314 314 314 315 316 316 317
324 324 324 323 324 324 323 323 324 324 324 324 323 323 322 322 322 321 321 320 320 319 320 320 319 319 319 318 317 316 315 314 314 314 312 310 310 310 310 310 310 310 311 310 310 309 309 308 308 307 307 307 307 307 308 307 307 307 307 308 308 308 308 308 308 308 308 308 308 308 308 308 308 308 309 310 311 312 312 313 313 314 315 315 316
324 323 323 322 322 320 319 319 320 321 321 321 321 320 320 319 318 318 318 318 318 317 318 318 318 317 317 316 316 315 314 314 313 313 312 312 311 311 311 310 310 310 310 310 309 309 309 307 306 305 304 304 304 304 305 305 304 304 305 306 307 307 307 307 306 306 307 307 307 307 307 308 308 308 308 308 309 310 311 312 312 313 314 314 315
323 322 321 320 319 317 315 315 316 317 317 317 317 316 315 314 314 314 314 314 314 314 315 315 315 315 314 314 314 313 313 312 312 311 311 311 311 310 309 309 309 309 309 309 308 307 307 306 304 302 301 300 300 300 301 301 301 300 302 304 304 305 305 305 305 304 305 305 305 306 306 306 307 307 307 307 307 309 310 311 311 311 312 313 313
320 319 319 318 317 316 314 314 313 313 314 313 312 312 311 311 311 311 311 310 310 311 312 312 313 312 312 312 312 312 311 310 309 308 308 308 309 308 308 308 308 308 307 306 305 306 306 305 303 302 301 300 299 299 299 299 299 298 299 301 302 302 303 302 302 302 302 303 303 303 304 304 305 306 306 306 306 307 308 309 310 310 310 311 312
317 317 318 317 317 315 315 314 314 313 313 312 311 310 310 310 310 309 309 309 308 308 308 309 310 310 310 309 308 307 307 306 306 305 305 305 306 306 306 306 305 304 303 303 302 302 303 303 302 302 301 301 300 299 299 298 298 297 298 300 301 300 300 300 300 300 300 300 300 300 300 301 302 303 304 305 305 305 306 307 307 308 308 308 309
317 317 317 317 316 315 315 314 313 313 313 312 310 309 309 308 307 307 306 306 306 306 306 306 307 306 306 304 303 302 302 302 302 302 301 301 301 301 302 303 303 303 302 302 301 300 301 301 302 301 300 300 300 299 299 298 297 295 296 297 298 297 297 297 297 297 298 299 299 299 300 300 301 302 302 303 304 304 304 305 305 305 306 305 306
317 316 316 316 315 314 313 313 312 312 312 312 310 309 309 307 306 305 304 304 305 305 305 304 304 303 301 299 298 297 297 296 296 296 296 297 297 297 298 300 301 302 302 301 300 299 299 299 301 301 300 299 299 299 300 299 297 296 296 296 295 295 294 294 295 296 296 297 297 298 299 300 300 301 301 302 303 303 303 304 304 304 304 304 305
315 315 314 313 312 312 311 311 311 310 311 310 309 308 307 305 304 303 302 302 301 301 300 298 297 296 295 294 294 293 293 292 292 292 293 293 293 294 295 296 297 299 300 300 299 298 296 297 298 299 298 298 298 298 298 298 298 298 298 297 296 295 295 295 295 296 296 296 296 297 297 298 299 300 301 301 302 302 302 303 303 304 304 304 304
313 312 311 310 310 309 309 308 308 308 308 307 306 304 302 300 299 298 297 296 295 294 294 293 292 292 291 291 291 291 291 291 291 291 291 291 291 292 293 294 295 296 297 298 298 297 295 295 295 295 295 295 295 295 295 296 296 296 297 297 297 296 296 296 296 296 295 295 295 296 297 298 298 300 300 301 301 301 301 302 302 302 303 303 303
310 309 309 308 307 306 305 304 303 302 301 300 299 298 296 295 294 294 293 292 292 292 291 291 291 291 291 291 290 290 290 290 290 290 290 290 291 291 292 294 295 295 295 297 297 296 294 293 294 293 293 293 293 294 294 294 294 294 295 295 295 295 295 296 295 295 295 295 295 295 295 296 296 297 298 299 300 300 300 300 300 301 301 301 302
307 307 306 305 303 302 300 298 297 296 295 295 294 294 293 293 292 292 291 291 291 291 291 290 290 290 290 290 290 289 289 289 289 289 289 289 290 290 291 292 293 294 295 295 296 295 294 292 292 292 292 292 292 292 293 293 293 293 293 294 294 294 294 294 294 294 294 295 295 295 295 294 295 295 296 297 298 299 299 299 300 300 300 300 301
305 304 302 300 298 297 296 295 294 294 293 293 293 292 292 292 291 291 291 291 291 291 290 290 290 289 289 289 289 288 288 288 288 288 288 288 289 289 289 290 291 292 293 294 294 294 293 292 292 292 292 292 292 292 292 292 293 293 293 293 293 293 293 293 294 294 294 294 294 294 294 294 295 295 296 296 297 297 297 298 299 299 299 299 299
301 299 297 296 295 294 294 293 293 293 293 292 292 291 291 291 291 290 290 290 290 290 289 289 289 288 288 288 288 288 288 288 288 287 288 287 288 288 288 289 290 290 290 292 292 293 292 292 291 291 291 291 291 291 292 292 292 292 292 292 292 292 293 293 293 293 293 293 293 293 294 294 295 295 295 295 295 295 296 297 297 297 298 298 298
297 295 295 294 294 293 293 293 292 292 292 291 291 291 290 290 290 289 289 289 289 289 289 288 288 288 288 288 288 287 287 287 287 287 287 287 287 287 287 287 288 289 289 290 291 291 291 291 291 291 291 291 291 291 291 291 291 291 291 291 292 292 292 292 292 292 292 292 292 293 293 293 293 294 294 294 295 295 295 296 296 296 296 297 297
294 294 293 293 293 293 293 292 292 291 291 291 291 290 290 289 289 289 288 288 288 288 288 288 288 288 287 287 287 287 287 287 287 287 286 286 286 287 287 287 287 288 288 289 290 290 290 290 290 290 290 290 290 290 290 291 291 291 291 291 291 291 291 291 291 291 291 291 292 292 292 292 292 293 293 293 294 294 295 295 295 295 295 296 296
293 293 293 292 292 292 292 291 291 291 291 290 290 290 289 289 288 288 288 288 288 288 288 287 287 287 287 287 286 286 286 286 286 286 286 286 286 287 287 287 287 288 288 288 289 289 289 289 289 290 290 289 290 290 290 290 290 290 290 290 290 290 290 290 290 290 291 291 291 291 291 291 291 292 292 292 292 293 294 294 294 294 295 295 295
293 293 292 292 292 291 291 291 291 290 290 289 289 288 288 288 288 288 288 288 288 287 287 287 287 287 286 286 286 286 286 286 285 286 286 286 286 286 287 287 287 287 287 288 288 288 288 289 289 289 289 289 289 289 289 289 289 289 289 290 290 289 289 290 290 290 290 290 290 290 290 290 291 291 291 292 292 292 292 293 293 293 293 294 294
293 292 292 292 291 291 291 290 290 290 289 288 288 288 288 287 287 287 287 287 287 287 287 287 286 286 286 286 285 285 285 285 285 285 285 285 286 286 286 286 286 286 287 287 287 287 287 288 288 288 288 288 288 288 288 288 288 289 289 289 289 289 289 289 289 289 289 289 289 289 289 290 290 290 291 291 291 291 292 292 292 292 293 293 293
292 292 291 291 291 291 290 290 289 289 288 288 287 287 287 287 287 287 287 287 286 286 286 286 286 285 285 285 285 285 285 285 285 285 285 285 285 285 285 285 286 286 286 286 286 287 287 287 287 288 288 288 288 288 288 288 288 288 288 288 289 289 289 288 288 288 288 288 288 289 289 290 290 290 291 291 291 291 291 291 291 291 292 292 292
291 291 291 290 290 290 290 289 288 288 287 287 287 287 287 287 287 287 286 286 286 286 285 285 285 285 285 284 284 284 284 284 284 284 284 284 284 284 285 285 285 286 286 286 286 286 287 287 287 287 287 287 287 287 287 287 287 287 287 288 287 287 287 287 288 287 287 288 288 289 289 290 290 290 290 290 290 290 290 290 290 291 291 291 291
291 290 290 290 290 289 289 288 288 287 287 287 287 286 286 286 286 286 286 285 285 285 284 284 284 284 284 284 284 284 284 284 284 284 283 283 284 284 284 285 285 285 285 285 285 285 285 286 286 286 286 287 286 286 286 286 286 286 286 286 286 287 287 287 287 287 287 287 288 288 288 288 288 288 289 289 289 289 289 289 290 290 291 291 291
290 290 290 290 289 289 288 288 288 287 287 287 286 286 286 286 286 285 285 284 284 284 284 284 284 283 283 283 283 284 283 283 283 283 283 283 283 283 284 284 284 284 284 284 284 284 284 285 285 285 285 286 286 286 285 285 285 285 285 286 286 286 287 287 287 287 287 286 286 287 286 287 287 287 288 288 288 288 289 289 290 290 291 291 291
290 290 289 289 288 288 288 288 287 287 287 286 286 286 286 285 285 284 284 284 284 284 284 283 283 283 283 283 283 283 283 282 282 282 282 282 282 283 283 283 283 283 283 283 283 284 284 284 284 285 285 285 285 285 284 285 285 285 285 286 286 286 286 286 287 286 286 286 286 286 286 286 287 287 287 287 288 288 289 289 290 291 291 292 291
289 289 289 288 288 288 287 287 287 287 286 286 286 285 285 285 284 283 283 283 283 284 284 283 283 283 283 282 282 282 282 281 281 281 281 282 283 283 283 283 283 283 283 283 283 283 283 284 284 284 284 284 284 284 284 284 284 285 285 285 286 286 286 286 286 286 286 286 286 286 286 287 287 287 287 287 287 288 289 289 290 290 291 291 292
289 288 288 288 287 287 287 286 286 286 286 285 285 285 285 284 283 283 283 283 284 283 283 283 283 282 282 282 281 281 280 280 280 281 282 283 283 283 283 283 283 283 283 283 283 283 283 283 283 283 283 284 284 284 284 284 284 285 285 285 285 285 285 286 286 286 286 286 286 286 286 286 287 287 287 287 287 288 288 289 290 290 290 291 291
288 288 287 287 287 286 286 286 286 285 285 285 285 284 284 283 283 283 283 284 283 283 283 282 282 281 281 281 280 280 280 280 280 281 282 283 283 283 283 283 283 283 283 283 283 283 283 283 283 283 284 284 284 284 284 284 284 284 285 285 285 285 285 286 286 286 286 286 286 286 286 286 287 287 287 287 287 288 288 289 289 289 290 290 291
287 287 287 286 286 286 286 286 285 285 284 284 284 283 283 282 283 283 283 283 283 282 282 281 280 280 280 280 280 280 280 280 281 282 282 283 283 283 283 283 283 283 282 282 282 282 283 283 283 283 283 283 283 283 283 284 284 284 284 285 285 285 285 285 286 286 286 286 286 286 286 287 287 287 287 288 288 288 288 289 289 289 290 290 290
287 287 286 286 285 285 285 285 285 284 284 284 283 283 282 282 282 283 283 282 282 281 280 279 279 279 279 279 279 279 279 280 281 282 282 283 283 283 283 283 283 283 282 282 282 283 283 283 283 282 282 282 282 282 282 283 283 283 284 284 284 285 285 285 285 286 286 286 286 287 287 287 287 287 288 288 288 289 289 289 289 290 290 290 290
286 286 286 285 285 285 284 284 284 284 284 283 283 282 282 282 282 282 281 281 280 279 279 279 279 279 279 279 279 279 280 280 281 282 282 283 283 283 283 283 283 282 282 282 283 283 282 282 281 281 281 281 281 282 282 282 282 283 283 284 284 284 285 285 285 285 286 286 286 287 287 287 287 288 288 288 288 289 289 289 289 289 289 289 288
Wind_Speed
11 11 11 10 9 10 10 7 6 6 7 7 6 5 5 5 5 6 7 7 7 7 7 7 8 10 11 11 11 10 10 10 12 13 13 12 13 13 12 12 12 12 12 12 11 11 11 11 13 13 12 12 12 11 11 12 12 12 12 13 13 14 15 14 14 14 15 15 15 15 16 16 16 16 17 17 17 17 17 18 18 17 17 17 17
11 12 13 12 9 10 11 10 8 8 9 9 8 7 7 8 8 8 8 9 8 8 9 9 10 10 11 12 13 13 13 12 12 13 14 15 15 15 14 14 14 14 13 14 14 14 13 13 14 15 15 15 14 14 15 15 14 14 15 16 15 15 16 17 17 17 17 17 16 17 18 18 18 18 19 19 19 19 19 19 20 19 19 19 19
12 12 13 12 10 11 11 11 10 10 10 10 10 10 10 10 10 10 10 10 9 9 10 11 11 10 10 11 12 13 15 15 14 15 15 16 17 17 16 16 17 16 16 15 16 17 16 16 16 16 17 17 17 17 18 18 18 18 19 18 18 18 18 19 20 20 21 20 19 19 20 20 20 20 21 21 21 21 22 22 22 22 22 21 21
15 13 13 13 12 11 11 12 12 11 12 12 12 12 12 13 13 13 13 12 11 11 11 12 13 12 12 12 12 13 14 14 15 16 17 18 19 19 19 18 19 19 18 18 17 18 19 19 18 18 19 19 20 20 21 22 22 23 23 21 21 20 21 22 22 23 23 23 23 22 22 22 22 23 23 23 23 23 24 24 24 24 24 23 23
16 15 14 14 14 14 13 13 12 12 13 13 13 13 14 14 14 15 15 14 14 14 14 15 15 14 14 15 15 16 16 16 16 17 18 19 20 21 21 20 21 21 21 21 21 21 21 22 22 22 21 22 22 22 23 23 23 25 26 24 24 23 24 24 24 25 25 25 25 24 24 24 25 25 25 25 25 26 26 26 26 26 26 26 26
17 17 17 15 15 17 17 15 13 12 13 14 14 14 15 16 16 16 17 16 16 16 16 17 17 17 17 17 18 19 19 19 19 19 20 20 21 22 23 22 23 23 23 23 24 24 23 24 25 25 25 25 25 25 25 25 24 26 26 25 26 28 28 26 25 27 27 27 27 27 26 26 27 27 27 27 27 28 29 29 29 29 29 29 28
18 18 19 18 16 16 18 18 16 14 14 14 14 15 16 16 17 17 18 18 18 18 18 19 19 19 19 20 21 21 21 22 23 22 22 22 21 22 23 24 25 25 25 25 26 26 26 27 27 28 28 28 28 27 27 27 27 27 27 27 28 30 30 30 28 28 29 29 30 30 29 29 30 30 30 29 30 30 31 31 31 31 31 32 31
19 18 18 20 20 17 16 17 18 17 16 15 14 15 16 16 16 18 19 20 20 20 20 20 21 21 21 21 21 22 22 23 23 23 22 22 23 23 23 25 26 26 27 27 28 28 28 29 30 30 30 31 31 30 30 30 29 29 30 30 30 30 31 32 32 31 32 32 31 31 32 32 32 33 33 33 33 32 33 33 33 33 34 34 34
21 20 18 19 20 20 17 14 16 18 18 17 16 16 17 17 17 19 20 21 20 20 20 22 22 23 22 22 23 22 22 22 23 23 22 23 24 25 25 25 26 26 27 28 29 30 31 31 32 33 32 33 33 33 34 34 34 33 32 34 34 33 33 32 32 33 35 35 35 35 35 35 35 35 36 36 36 35 35 36 36 36 36 36 37
21 21 20 19 19 19 18 16 15 16 16 17 16 17 19 19 20 21 21 21 21 21 22 22 22 22 23 23 23 23 23 23 24 23 24 25 26 27 27 27 27 28 28 29 31 32 33 34 34 35 35 36 35 35 36 36 37 37 36 37 37 37 37 35 33 33 34 37 38 39 37 37 39 39 39 39 40 39 38 39 38 38 39 39 39
22 22 21 21 20 19 18 18 18 17 17 19 19 19 19 19 21 22 22 22 22 23 22 21 20 21 21 23 24 25 25 25 26 26 26 27 28 29 30 30 30 30 31 31 33 33 33 33 33 34 35 36 37 37 38 39 39 39 40 40 39 38 39 39 38 36 36 37 38 39 38 38 40 42 43 42 42 43 41 41 40 40 41 41 41
23 23 23 22 22 21 19 18 18 19 21 22 22 22 21 20 21 22 23 24 24 24 21 19 19 20 22 24 25 24 25 25 26 27 28 29 29 31 32 32 31 31 31 30 30 30 29 28 27 28 30 31 33 34 36 38 39 40 41 42 43 42 41 41 41 40 40 40 40 40 39 39 41 43 44 43 44 45 45 44 44 43 44 43 43
23 23 23 22 22 22 22 20 20 21 23 24 24 25 25 23 21 21 23 23 23 23 20 18 17 18 21 23 25 25 24 22 23 25 26 25 25 26 27 27 27 24 22 23 24 24 23 23 23 25 26 28 29 30 30 32 34 35 37 39 41 43 44 43 42 42 44 44 43 42 42 42 42 43 45 44 45 47 47 47 46 45 46 46 46
22 22 22 22 22 21 21 21 20 21 22 23 23 25 24 21 20 22 24 24 24 23 19 15 14 14 14 14 18 21 19 17 19 19 17 17 19 20 21 20 19 17 18 21 22 22 22 22 23 25 26 27 28 29 30 31 31 32 33 34 35 37 40 42 41 42 44 45 44 43 43 44 45 45 46 46 45 47 47 48 48 48 49 49 49
21 20 20 21 21 21 21 21 19 17 18 20 20 21 20 19 20 23 25 24 22 21 19 17 16 13 8 6 6 9 11 11 12 14 14 16 17 15 17 17 16 17 21 24 24 23 23 23 25 28 28 29 29 30 31 33 34 34 34 34 35 35 36 38 39 40 41 43 43 43 42 44 45 46 47 48 48 48 47 49 50 49 51 51 51
19 19 19 20 20 21 20 21 19 16 18 21 22 22 21 19 18 22 24 21 19 20 20 19 19 13 5 2 1 2 5 6 9 16 15 11 11 13 15 16 18 22 24 25 25 24 24 25 28 30 31 31 30 31 33 34 35 35 36 36 36 36 36 37 38 39 40 41 42 42 42 42 44 46 47 47 48 47 47 51 51 49 52 53 53
20 19 19 19 20 20 19 20 20 17 19 23 23 23 22 19 17 18 19 18 19 21 21 20 20 17 10 4 2 1 3 4 10 15 11 8 14 17 15 17 22 26 26 26 26 25 27 29 31 32 32 32 31 32 33 34 34 35 35 35 35 36 36 37 38 39 39 39 40 40 41 42 43 45 46 46 46 46 46 49 49 49 54 54 54
20 18 18 17 18 19 19 20 20 18 16 17 19 21 22 21 17 15 17 19 21 21 21 21 17 15 14 12 11 9 8 7 6 6 12 18 17 13 17 24 27 26 25 26 27 28 30 32 34 34 33 33 32 33 33 33 34 34 34 35 34 35 36 37 38 40 40 39 40 40 40 42 43 44 45 46 47 47 47 48 46 47 52 52 54
18 16 16 16 15 16 17 18 17 15 14 15 19 21 21 21 18 15 16 18 19 20 21 21 16 14 15 16 18 19 17 12 6 4 9 16 18 18 23 25 24 26 27 28 29 31 33 35 35 35 33 32 33 34 34 34 34 33 34 35 35 36 37 38 38 39 40 40 40 41 40 41 41 43 44 45 48 49 48 49 48 48 49 49 51
15 15 14 14 13 14 15 16 15 14 15 16 16 16 13 12 11 11 13 14 16 18 20 19 17 15 14 13 16 19 20 18 15 11 6 6 14 22 25 24 24 28 28 28 31 33 35 36 35 34 34 34 34 34 35 34 34 34 34 35 35 36 37 37 38 38 39 40 40 41 41 40 40 41 42 43 46 47 47 49 50 51 50 49 51
14 14 13 13 12 12 12 12 12 10 10 10 8 6 5 5 5 8 12 13 12 14 17 17 15 14 12 12 14 16 17 17 16 15 10 6 7 9 18 26 27 29 30 30 32 33 34 36 36 35 35 36 35 35 34 34 33 34 34 33 33 34 35 35 37 38 38 39 40 41 42 42 41 41 42 42 43 45 45 47 49 51 51 51 51
13 12 12 11 11 12 11 11 12 11 10 10 9 7 7 9 9 9 10 8 7 8 10 11 12 13 13 13 13 13 11 10 10 12 11 10 7 6 14 18 18 26 32 30 31 32 34 35 35 35 35 35 34 34 33 32 32 33 32 32 31 31 32 33 34 35 37 37 39 40 41 42 42 42 42 43 43 44 44 44 46 48 49 50 51
14 12 11 12 12 12 13 13 14 14 13 13 14 15 14 14 13 11 9 7 7 7 6 7 7 9 10 11 12 12 10 9 12 14 12 9 9 9 15 19 18 23 26 25 29 31 31 32 33 33 33 33 32 31 31 31 31 32 32 30 30 30 30 31 33 33 35 37 37 39 40 41 42 43 42 42 42 43 43 43 44 45 45 48 50
15 14 13 14 14 12 12 13 15 16 16 16 16 16 14 12 9 8 8 8 8 7 6 5 5 7 8 9 11 12 14 14 15 17 15 16 14 11 16 20 17 20 25 26 26 25 26 29 30 30 30 30 30 30 30 31 31 31 32 31 30 30 31 31 33 34 35 37 38 39 41 42 43 44 44 43 43 42 43 43 43 44 44 45 47
17 16 14 12 11 8 6 6 7 9 11 11 10 8 6 4 3 4 4 5 5 5 5 5 5 6 7 8 9 10 12 13 15 16 17 19 17 14 18 20 16 20 26 25 23 24 24 25 26 27 27 28 28 28 29 30 32 33 33 34 33 32 34 35 36 37 38 38 39 39 40 42 43 44 45 46 46 44 43 44 44 45 45 44 45
16 14 12 10 9 7 5 4 3 2 2 2 3 3 2 2 1 1 2 3 3 4 5 5 5 6 7 8 9 10 12 13 14 14 15 17 17 16 18 19 18 21 23 23 23 21 19 21 24 25 25 26 26 28 30 31 33 36 35 35 37 36 38 40 40 41 42 41 42 43 43 44 44 45 46 47 48 47 46 45 45 46 46 45 45
13 12 12 12 10 7 5 3 2 2 3 3 4 4 4 2 1 1 0 1 2 2 3 3 4 5 6 8 9 10 11 11 11 11 12 14 16 18 17 14 14 15 16 20 20 19 20 22 23 24 25 26 27 28 31 33 35 38 38 36 39 41 41 43 44 44 44 45 45 46 46 45 45 45 46 48 48 50 49 48 48 48 48 48 48
13 12 12 11 9 7 5 5 3 3 3 3 3 5 4 3 4 4 4 4 4 5 4 3 3 4 5 6 8 9 10 10 10 10 11 12 13 16 16 12 11 10 10 13 13 14 21 20 19 24 27 26 29 31 31 35 38 40 41 40 42 45 45 45 46 46 46 47 47 48 48 47 46 45 45 47 48 49 50 51 51 51 52 52 51
13 13 12 10 9 8 7 6 5 5 5 4 4 4 4 4 7 8 8 8 7 6 6 6 6 6 7 8 9 10 10 10 11 11 12 13 14 14 14 12 12 9 7 10 11 14 20 21 18 22 26 26 28 32 32 33 38 39 40 42 43 45 47 46 47 47 48 49 50 50 49 49 48 48 47 47 47 48 49 50 51 51 52 52 50
13 12 11 11 10 9 8 7 7 6 6 5 5 5 5 6 7 8 8 7 6 6 6 6 7 8 8 9 10 10 11 12 13 14 14 15 16 16 15 14 13 11 9 9 14 20 25 26 23 21 26 32 32 32 35 35 36 37 37 40 43 44 46 47 47 48 49 50 51 51 51 51 51 50 49 48 47 47 47 48 48 48 48 48 48
13 13 12 12 11 11 10 10 9 8 7 7 7 7 8 8 9 8 8 8 8 8 9 8 9 9 10 11 11 11 12 13 13 14 15 16 17 18 18 18 16 15 17 13 12 25 33 31 33 34 32 36 39 35 37 38 35 37 38 39 41 43 44 46 47 48 49 50 51 52 51 51 50 49 48 47 47 47 47 47 47 47 47 46 46
14 14 15 15 15 15 14 14 13 13 12 11 10 9 10 10 10 10 10 10 10 10 10 10 10 10 11 12 12 12 13 14 15 15 16 16 17 18 18 20 20 17 20 18 12 26 44 41 38 43 39 38 43 39 36 39 38 37 39 39 40 42 43 45 46 47 47 48 50 51 51 51 52 52 50 49 48 47 47 47 47 47 46 46 46
16 17 18 18 18 18 18 17 16 15 14 13 12 11 11 10 10 10 10 9 10 10 10 10 10 11 11 12 13 13 13 15 17 18 19 19 19 20 19 20 23 20 19 22 18 22 44 49 41 43 42 38 43 42 37 38 40 39 41 42 41 42 43 44 46 47 46 46 47 48 49 51 52 53 53 51 49 48 47 46 46 46 45 45 45
19 20 20 20 20 18 18 17 16 15 14 13 12 11 10 10 9 9 9 9 9 10 10 11 11 12 13 14 15 16 16 18 20 21 22 23 22 23 24 22 24 24 19 22 24 21 34 49 48 45 43 38 40 42 38 36 40 43 43 43 41 42 43 43 44 46 46 45 45 47 48 49 50 50 51 51 51 50 49 48 47 46 45 46 46
22 22 21 21 20 18 18 17 16 15 14 13 12 10 10 9 8 8 8 8 10 10 11 12 13 14 15 16 17 18 19 21 22 22 23 23 24 24 26 25 25 28 25 22 26 26 29 42 50 47 43 40 40 41 39 38 40 41 43 44 42 42 43 42 43 46 46 44 44 46 46 46 47 47 48 50 51 51 51 50 50 48 46 46 47
23 23 21 20 19 18 17 16 15 14 13 12 11 10 9 8 7 7 8 9 10 11 12 13 14 15 16 17 18 19 20 21 22 23 23 23 24 24 26 28 26 28 29 26 26 29 29 36 46 49 45 43 43 41 38 38 41 40 41 43 43 44 46 45 43 44 46 44 43 43 43 43 44 46 46 47 48 49 49 49 49 48 46 46 47
24 23 21 20 18 17 16 15 14 13 12 11 10 9 8 7 7 7 8 9 10 11 12 12 13 14 15 16 18 18 20 22 22 23 24 23 24 25 25 28 28 28 29 29 28 30 31 33 41 48 48 45 45 43 37 35 40 42 42 44 45 43 43 44 43 43 44 44 42 41 41 42 43 44 45 46 45 46 47 47 47 46 45 45 45
23 22 21 19 17 16 16 15 13 12 11 10 8 8 7 6 6 6 7 8 9 11 11 12 13 14 15 16 17 18 18 20 22 22 23 23 23 25 26 27 29 28 29 29 28 29 31 34 38 43 46 46 45 45 41 36 37 40 42 44 45 42 40 42 44 44 43 44 43 41 41 43 45 46 46 45 45 45 45 45 46 45 45 45 44
23 21 20 18 17 16 15 14 13 11 10 9 7 7 6 5 5 6 7 8 9 10 11 12 13 14 16 16 17 18 18 19 20 21 22 23 24 24 25 26 28 28 28 28 28 28 29 33 35 36 40 44 44 44 45 43 38 37 36 36 39 44 45 45 46 45 44 45 45 44 44 45 46 47 46 45 44 45 46 46 46 46 45 44 44
22 20 19 18 17 16 15 13 12 10 9 8 6 5 5 4 5 6 8 9 10 11 12 13 14 15 16 17 17 18 18 18 18 19 20 22 24 26 25 25 26 28 28 28 28 28 28 31 33 34 36 40 41 42 44 41 34 33 34 33 35 40 44 45 48 49 48 47 46 45 45 46 45 45 44 43 42 43 44 45 47 48 45 42 43
21 20 19 18 17 16 14 12 11 10 8 7 5 4 4 4 5 7 9 10 12 13 14 14 15 16 16 18 18 18 19 19 19 20 20 20 22 25 25 25 25 27 28 28 27 27 28 28 29 30 31 32 34 35 36 33 31 34 39 37 34 37 41 45 49 50 48 47 48 46 42 41 42 42 40 39 40 42 42 45 48 46 43 41 40
21 20 19 18 16 15 14 12 10 9 7 5 4 3 3 5 7 8 9 11 12 14 15 16 16 17 17 18 19 20 20 21 21 21 21 21 20 21 23 23 24 26 27 28 28 26 26 25 26 28 27 26 30 32 33 35 37 38 39 37 36 40 42 39 39 45 48 45 45 45 41 38 39 40 40 39 42 42 41 43 46 44 41 41 40
21 20 18 17 16 14 13 12 10 8 6 4 3 3 4 6 7 9 10 12 13 14 15 16 17 17 18 19 20 21 21 22 24 24 23 21 21 21 20 20 20 22 24 27 29 29 27 25 27 29 26 25 32 36 37 38 38 39 41 40 39 38 35 27 22 32 45 47 44 44 44 43 42 42 42 42 44 44 43 43 45 43 41 41 41
21 19 18 16 15 14 12 11 8 6 5 2 2 3 5 6 8 10 11 12 13 14 15 16 17 18 19 20 21 22 23 23 24 25 24 22 21 20 20 20 20 21 22 24 27 29 30 29 30 32 30 29 34 38 39 39 40 43 45 43 41 37 34 28 21 27 45 52 47 43 44 47 45 41 40 42 44 45 43 41 42 41 38 38 40
20 18 17 15 14 13 11 9 7 5 3 2 3 4 6 8 9 10 12 13 14 15 16 17 18 19 20 21 21 22 23 24 25 25 24 24 24 23 23 24 24 24 23 23 24 26 29 31 32 35 36 35 36 40 44 43 43 44 41 39 41 39 36 33 32 38 50 53 45 38 38 45 46 40 37 39 41 43 41 38 39 38 36 36 40
19 17 16 15 13 12 10 8 6 4 2 2 4 6 8 9 10 11 13 14 15 16 17 18 18 19 20 20 21 22 23 24 24 24 25 27 27 28 29 29 28 28 27 26 26 26 27 28 30 35 39 39 39 44 47 45 43 41 38 38 41 42 41 44 46 51 53 51 45 33 28 38 46 39 36 39 40 41 40 37 37 37 35 36 40
18 16 15 14 13 11 9 7 4 2 2 4 5 7 9 9 10 12 14 15 16 17 17 18 18 19 19 19 21 22 22 23 22 22 24 28 30 31 33 34 33 33 32 30 28 28 29 30 32 36 39 40 41 44 46 46 45 43 42 44 47 47 47 47 48 49 50 51 48 30 19 33 45 38 37 43 42 39 39 37 35 36 36 37 40
18 16 15 13 12 10 8 6 3 2 3 5 6 8 9 9 11 13 15 16 17 17 17 18 18 18 18 19 21 21 21 21 21 21 23 27 30 33 36 38 38 38 37 34 31 30 32 33 34 36 38 40 42 44 45 45 44 44 46 47 47 46 40 34 32 37 42 48 48 32 20 30 41 36 36 42 41 38 38 37 35 36 38 39 40
18 16 14 13 11 9 7 5 3 3 4 6 7 8 9 10 12 14 15 16 17 17 18 17 18 18 18 19 20 21 22 22 21 21 23 26 30 32 34 38 40 40 41 40 38 37 36 35 35 37 39 41 42 42 42 42 41 43 43 40 39 39 32 20 16 23 35 45 49 40 27 28 34 34 34 38 38 36 36 37 37 36 37 39 38
18 16 14 12 10 8 6 5 4 3 5 6 7 8 9 10 13 14 15 16 17 17 18 17 18 18 17 18 19 21 23 23 22 23 24 26 29 31 32 34 36 39 42 43 42 42 42 42 42 43 42 41 40 40 41 41 39 39 38 37 37 38 31 21 17 23 32 41 46 39 25 24 30 32 30 31 32 32 33 33 33 31 31 33 33
17 15 13 12 10 8 6 4 4 3 4 6 6 7 8 10 12 14 15 17 18 18 18 18 19 18 17 19 21 21 22 23 24 25 25 26 28 29 30 31 32 35 39 41 40 41 45 47 49 49 47 45 43 41 41 41 39 37 36 37 38 38 33 29 28 24 17 24 38 36 23 22 29 30 28 21 15 18 24 24 22 23 25 26 27
Wind_Direction
221 232 238 243 240 231 227 230 233 230 232 236 241 255 267 272 276 278 279 273 269 269 267 264 261 261 262 263 263 263 265 265 265 265 268 273 277 280 281 280 273 266 261 255 256 259 266 270 261 256 262 266 267 266 255 247 248 252 261 260 261 264 256 252 251 248 247 245 246 245 245 245 245 245 244 243 243 242 242 241 241 239 238 237 238
230 235 236 242 242 236 235 235 238 240 242 248 254 265 277 280 280 285 287 282 280 283 282 276 266 261 259 260 262 264 267 267 264 265 269 271 273 277 279 280 279 274 267 259 256 255 260 267 268 263 260 259 257 261 257 245 246 256 260 259 261 264 256 253 252 249 246 242 244 246 246 247 245 245 245 245 245 244 243 243 243 242 241 241 241
228 236 239 241 243 242 245 244 242 243 246 253 258 265 274 277 279 284 287 284 283 285 285 283 280 276 271 268 265 264 267 269 268 267 268 270 270 273 276 278 280 279 274 267 260 257 258 261 268 270 264 259 257 261 259 252 255 255 251 254 259 262 257 255 255 250 244 237 235 238 240 243 245 245 245 245 245 245 245 244 243 243 244 243 243
225 232 239 240 242 246 250 249 250 250 250 254 257 262 269 273 276 278 280 280 279 280 281 283 285 285 283 282 279 274 272 271 272 272 271 271 269 270 272 274 276 278 278 274 268 264 262 261 264 269 268 265 265 266 264 264 266 257 250 252 255 257 254 255 256 249 244 240 235 233 233 235 238 241 242 243 244 244 245 244 244 243 244 244 243
229 230 235 240 244 245 248 250 253 254 253 257 258 260 263 266 270 271 275 276 277 280 279 280 283 284 283 283 283 282 280 276 274 274 274 273 271 270 271 272 273 276 277 275 273 271 269 267 265 268 268 268 271 271 270 272 272 264 261 260 254 251 248 252 255 248 245 245 240 238 238 236 235 235 237 239 240 241 242 243 243 243 244 244 242
236 235 234 240 245 244 246 248 253 257 255 256 257 259 260 262 266 270 273 273 275 278 277 277 279 281 283 282 282 282 282 279 277 276 275 274 272 271 271 271 273 274 275 276 276 275 273 271 270 271 271 270 272 274 274 275 273 270 269 266 258 252 248 251 252 247 245 244 242 241 241 241 240 238 238 239 239 239 239 240 241 242 242 242 242
239 241 239 239 243 245 246 245 250 257 256 257 262 264 263 264 267 269 272 271 273 275 274 276 278 278 281 282 281 281 281 279 279 278 277 276 272 270 270 271 272 273 274 276 276 277 276 275 273 272 272 272 274 274 275 276 274 273 271 266 261 257 255 254 251 246 244 243 242 240 240 243 242 242 241 241 241 239 238 239 240 241 242 241 241
238 244 246 243 243 245 247 247 245 247 254 259 263 268 269 270 275 277 274 272 272 274 276 280 281 281 283 284 283 283 281 280 279 279 280 279 274 272 271 271 272 273 274 276 277 278 277 278 277 275 273 273 274 274 275 276 276 275 274 271 268 266 262 258 257 253 246 246 247 243 243 244 240 240 242 242 243 242 241 240 239 240 241 241 240
239 243 247 247 248 249 250 249 244 244 252 257 260 268 268 268 276 280 275 272 272 276 282 285 285 285 287 287 287 286 285 284 283 283 282 280 277 277 276 276 276 275 275 276 278 280 280 279 279 278 276 274 273 272 274 276 278 278 276 274 274 273 269 264 264 262 253 253 256 252 249 247 244 242 241 242 243 243 243 242 240 240 240 240 240
242 241 243 246 249 253 255 254 250 249 251 256 262 266 262 263 271 273 271 271 274 278 284 288 287 287 287 288 289 289 289 288 286 284 282 280 281 280 280 280 278 276 277 278 279 280 281 281 281 279 278 276 275 273 273 274 276 278 278 277 277 277 275 273 270 268 262 260 262 261 256 252 251 248 244 243 243 243 243 242 241 241 240 239 239
243 242 245 246 245 250 255 257 258 258 258 259 263 262 259 263 268 270 271 272 273 277 281 287 288 287 288 288 289 290 289 290 288 285 282 281 283 284 283 281 279 278 279 280 282 282 283 285 285 284 282 279 277 275 274 274 274 275 276 278 279 278 277 277 275 274 272 269 268 269 265 258 254 253 251 248 245 242 241 241 242 243 240 239 239
244 244 245 246 247 249 252 256 259 257 258 259 259 261 261 262 266 272 274 271 271 273 276 282 285 286 286 286 287 288 289 291 289 286 283 283 285 286 285 283 282 282 283 284 285 286 288 290 292 292 291 288 284 281 278 276 275 275 275 276 277 278 278 278 277 277 276 275 273 272 270 264 258 255 255 252 248 245 244 243 244 243 240 240 240
245 245 245 246 249 252 252 254 256 254 257 260 261 264 262 260 265 274 274 270 271 274 273 274 275 278 282 286 289 289 289 291 291 288 284 285 288 290 290 289 288 289 291 293 293 293 293 295 299 301 300 299 296 293 290 285 282 279 278 278 278 279 279 279 278 277 277 277 276 274 273 269 263 259 258 255 251 250 250 247 244 242 242 242 240
247 248 249 250 251 252 253 254 257 256 258 262 265 268 266 263 267 274 276 273 272 273 272 267 260 263 278 291 297 295 292 297 297 291 287 290 295 296 296 295 296 301 305 302 299 296 294 295 298 301 302 302 300 299 299 296 294 291 289 287 284 283 282 281 281 280 280 279 278 276 275 274 271 268 263 258 257 256 252 248 245 245 246 244 241
247 249 251 254 255 256 255 254 255 256 259 262 264 267 265 264 268 275 277 272 268 271 270 266 258 259 277 289 303 312 305 304 299 291 295 302 303 304 302 299 299 307 308 304 300 297 294 296 299 301 302 301 300 299 298 297 296 295 293 291 290 289 287 286 285 285 285 282 280 278 277 277 276 275 270 264 263 260 253 250 249 248 247 246 244
246 247 250 253 256 258 257 257 259 261 262 258 257 260 257 258 268 277 276 265 263 271 272 269 263 258 263 267 271 345 302 308 315 306 304 305 308 309 304 300 303 308 307 303 301 299 298 299 301 302 302 300 300 300 299 297 296 294 293 292 291 290 289 289 289 289 288 285 282 280 278 278 277 278 276 273 269 263 258 257 254 250 248 247 247
245 245 248 251 254 257 258 258 257 256 260 260 259 259 257 258 268 277 276 267 266 272 274 273 265 255 248 250 294 314 262 307 323 313 305 298 303 304 301 304 307 307 306 304 304 303 303 303 303 303 301 299 299 300 302 301 298 297 294 293 293 291 290 290 291 291 290 287 285 283 281 280 279 279 278 278 277 273 272 270 262 254 251 250 250
243 245 246 248 253 257 258 258 252 248 260 272 272 268 262 259 263 271 276 275 271 268 271 271 265 258 254 255 266 265 264 291 315 310 307 306 304 298 300 308 310 309 308 308 308 307 306 305 304 304 303 300 299 301 303 303 301 299 297 296 295 294 293 292 292 292 292 290 288 287 285 283 282 280 279 280 279 278 280 279 274 267 261 258 255
241 242 240 242 249 256 259 263 262 261 268 277 280 280 271 259 255 262 275 280 272 265 269 271 264 262 265 266 266 265 267 277 284 290 307 307 302 299 302 309 314 313 311 310 310 309 308 306 306 306 304 303 303 303 305 306 304 302 300 299 298 297 296 295 294 293 293 292 290 289 287 285 284 281 281 282 281 279 280 280 280 278 274 270 268
234 235 236 239 243 247 249 251 253 256 256 261 272 277 273 260 255 271 293 296 283 271 271 272 264 260 271 281 278 274 272 270 272 275 280 297 303 305 307 310 312 311 310 310 309 309 308 308 308 307 306 305 305 306 307 307 306 304 302 301 301 300 299 298 297 296 295 294 292 291 289 286 285 284 283 283 283 282 282 282 280 280 279 279 279
228 234 237 234 231 229 229 229 234 240 238 243 257 256 255 276 294 302 302 303 298 284 276 274 268 264 282 301 295 290 284 277 277 278 274 279 293 300 305 309 312 310 309 310 310 311 310 309 308 307 307 307 308 309 309 309 307 306 305 304 303 301 300 299 298 297 296 294 293 292 291 289 287 285 285 283 283 283 283 284 282 280 279 278 279
220 225 227 223 220 223 226 230 236 245 247 248 262 273 281 296 302 298 292 299 313 305 295 293 286 282 295 306 299 293 290 288 295 296 284 276 273 277 294 302 305 304 307 309 310 310 309 308 309 309 309 310 311 311 310 310 309 307 307 306 304 301 299 298 297 296 295 294 293 292 291 291 289 287 286 285 284 284 283 283 283 282 280 277 277
213 213 217 224 231 239 246 247 245 246 249 252 260 271 278 285 288 284 281 291 303 308 316 319 313 307 310 313 307 304 308 309 311 309 300 288 288 289 293 296 293 294 300 305 306 305 305 307 308 310 311 312 312 312 311 311 310 309 309 306 303 301 299 298 297 295 294 293 292 292 292 292 291 291 289 287 286 285 284 283 283 282 282 280 278
210 213 220 227 234 243 247 247 246 245 249 253 258 264 269 273 277 276 278 286 294 302 311 317 327 329 328 328 322 317 316 314 313 313 310 305 301 295 300 307 301 295 300 304 303 301 299 300 305 309 311 313 313 314 313 312 312 313 311 308 305 302 300 299 298 297 294 293 291 291 291 290 290 291 289 288 286 285 284 284 284 283 283 283 282
218 222 223 223 223 224 218 216 226 233 240 245 246 249 248 245 258 276 280 282 290 303 310 315 324 328 326 324 322 321 319 318 320 322 322 320 317 308 306 309 302 297 303 304 302 300 294 295 304 309 310 311 314 314 313 313 313 313 312 309 306 303 301 300 299 298 296 293 291 289 287 286 286 286 287 287 286 285 283 282 283 283 284 284 284
220 214 206 208 209 201 183 157 154 156 154 171 174 174 159 129 108 337 328 308 292 287 288 292 299 306 312 311 311 314 313 315 317 319 324 327 325 319 314 311 304 300 302 302 301 297 290 293 302 304 304 306 309 311 311 311 311 311 311 308 304 302 301 300 300 299 297 295 292 290 289 287 284 283 283 284 284 284 283 282 282 283 283 283 283
200 195 195 205 209 196 183 171 157 129 104 102 111 113 112 110 138 197 288 312 305 301 293 288 286 287 298 306 310 313 313 318 321 319 319 319 315 317 320 322 313 306 303 302 298 289 288 294 298 298 300 302 303 306 308 308 308 310 309 305 302 302 301 300 300 299 298 296 294 293 293 291 288 285 282 281 281 281 281 280 281 282 282 282 282
187 191 193 198 200 192 187 186 183 171 146 134 122 112 102 87 88 94 82 65 54 40 30 28 1 337 334 333 334 335 333 331 328 322 319 316 313 315 318 318 314 314 312 306 299 294 297 298 294 297 300 301 303 305 306 306 307 309 308 305 303 302 302 302 302 301 299 298 297 296 295 294 291 288 285 283 281 281 280 279 280 280 281 283 283
185 186 186 187 192 194 192 186 182 179 169 159 141 118 103 85 80 77 70 62 58 48 32 25 17 8 4 1 359 356 351 346 343 341 335 329 325 321 316 310 306 306 311 310 303 302 307 301 290 294 301 302 302 302 301 299 300 302 302 301 302 302 302 303 302 301 300 298 298 296 295 294 292 290 288 286 283 282 281 281 280 280 281 282 283
186 187 188 187 185 183 178 172 169 170 167 157 142 128 116 101 87 78 73 67 62 59 51 43 36 29 23 18 13 8 2 357 354 349 343 339 334 329 323 315 305 291 285 298 298 298 305 306 297 293 300 302 300 299 297 295 295 294 292 293 295 297 299 301 300 299 299 298 297 296 296 295 293 292 290 288 286 284 283 283 282 281 281 281 281
188 185 181 175 166 161 155 152 148 145 141 133 126 120 110 101 93 87 83 79 76 71 64 55 45 36 31 24 15 9 1 355 354 349 343 339 332 327 323 316 307 294 285 285 290 295 301 304 301 300 302 303 303 302 300 299 298 297 294 292 293 294 296 297 297 297 297 298 298 297 297 295 293 291 289 288 287 286 285 284 283 283 282 282 281
178 172 166 158 150 144 139 136 132 127 124 119 113 108 102 96 93 90 85 81 77 70 61 52 43 32 24 20 13 4 356 350 348 345 339 337 330 324 321 313 306 301 293 285 277 291 298 300 300 302 306 307 306 305 303 303 304 303 301 298 297 297 296 295 295 296 296 296 297 297 297 296 295 293 291 289 288 287 286 284 283 283 282 282 282
164 157 150 144 139 136 132 129 126 122 119 115 108 102 97 93 89 86 82 78 71 66 58 47 37 28 19 15 9 360 352 347 345 344 340 339 335 327 325 317 308 305 298 288 279 287 299 302 302 302 306 308 306 306 307 307 307 307 305 302 301 299 297 297 296 296 295 295 296 296 297 297 297 296 294 292 290 289 287 285 285 284 283 283 282
151 146 141 137 134 132 129 126 123 120 115 111 106 101 96 92 89 85 79 73 65 58 50 39 30 23 14 9 6 0 353 348 347 348 344 341 339 332 329 325 315 311 307 294 288 287 295 301 303 303 306 306 304 305 308 308 308 308 306 303 303 301 299 298 297 296 296 295 295 296 296 295 295 294 293 293 292 291 289 287 286 285 284 283 282
142 139 136 133 132 131 128 124 120 116 111 107 103 99 95 90 86 82 74 65 57 48 40 33 24 17 11 6 4 358 353 350 348 347 345 340 338 334 328 326 320 315 313 303 293 288 290 297 300 302 305 306 304 305 308 309 307 307 306 305 305 303 301 300 298 297 297 296 295 295 295 294 293 291 291 292 292 292 290 289 287 286 285 283 283
139 137 134 132 131 129 125 121 116 111 106 103 99 96 93 86 79 72 63 55 49 41 35 28 20 13 8 2 360 356 349 346 345 343 341 338 335 332 327 324 321 317 314 309 297 290 287 291 296 299 302 304 304 305 309 310 309 308 306 306 305 304 303 301 299 297 298 298 297 296 295 293 292 291 291 290 289 289 289 287 286 286 285 284 284
139 136 134 132 131 128 122 117 113 109 104 101 99 94 87 77 67 55 48 45 41 38 32 23 17 9 3 359 355 353 348 343 342 340 337 336 332 329 325 321 319 316 312 307 300 293 285 284 290 296 300 303 303 305 309 311 310 309 309 307 305 303 303 303 301 300 300 299 298 296 295 294 292 291 290 289 288 287 286 285 285 285 285 284 284
138 135 134 132 130 126 121 116 113 109 105 102 98 92 83 70 58 44 36 35 32 31 26 18 12 4 359 358 352 350 348 342 339 338 334 332 329 325 322 320 318 315 310 306 302 296 289 285 287 293 298 302 304 306 309 311 309 309 308 307 307 306 305 305 303 302 301 300 299 297 296 294 293 292 289 289 288 287 285 284 284 284 284 283 283
138 136 135 132 129 125 121 117 113 109 105 102 95 87 78 63 50 34 23 24 20 19 17 9 6 2 355 354 351 348 347 343 338 336 333 329 326 323 321 320 319 315 311 308 305 299 294 290 290 292 296 300 303 304 308 311 309 307 306 307 307 308 308 306 304 304 304 302 300 299 297 296 294 291 290 288 287 286 285 285 285 284 283 282 283
139 139 137 133 130 125 121 117 113 110 106 101 96 86 74 54 37 23 11 10 7 5 7 4 0 359 354 351 351 348 346 344 340 336 333 329 325 322 321 321 320 317 313 311 308 304 299 295 294 295 298 300 303 305 308 311 310 308 309 306 302 303 306 306 305 306 305 303 301 299 298 297 293 290 289 287 285 286 286 287 286 284 283 283 283
141 140 137 134 131 127 122 118 114 111 108 103 96 80 58 34 20 15 5 1 360 356 358 0 358 356 354 351 351 351 348 345 343 339 335 331 326 322 323 323 321 318 315 312 309 306 303 299 298 300 302 301 302 306 308 310 310 309 310 308 303 303 306 306 304 305 305 305 304 301 299 296 292 289 288 286 286 288 288 288 286 284 284 284 284
143 140 138 135 131 127 123 121 118 116 113 106 94 63 31 19 9 4 358 353 355 355 354 357 358 356 355 353 351 351 349 346 344 341 335 331 328 324 322 323 322 320 317 314 311 310 308 304 303 306 305 301 302 305 305 306 308 309 310 310 308 307 308 306 303 304 307 308 307 304 303 301 297 294 292 290 290 290 288 287 286 284 283 284 285
143 141 139 136 131 129 127 125 125 124 120 108 87 45 16 12 2 356 353 350 353 357 356 356 357 356 354 353 352 351 350 347 343 340 336 332 330 327 323 322 320 318 317 315 313 312 310 306 303 302 299 297 301 304 304 306 310 310 309 308 305 304 305 304 302 305 308 310 308 305 304 302 298 293 291 291 289 288 287 285 284 282 281 281 283
144 142 140 137 133 133 133 132 132 128 122 104 59 28 7 5 359 351 349 351 354 357 358 357 357 356 354 352 352 351 349 347 342 338 336 333 331 328 323 321 319 316 314 310 308 308 308 304 300 298 297 298 301 303 305 308 309 308 306 305 303 302 302 301 296 298 303 307 306 303 301 302 299 293 289 290 289 288 287 285 283 281 277 279 283
146 143 141 139 137 136 137 137 136 134 126 76 24 12 2 359 355 349 348 352 357 357 357 358 355 354 354 351 351 350 347 344 341 339 337 334 332 329 325 323 321 318 315 310 307 305 303 299 297 297 299 301 301 302 304 306 305 303 303 303 302 302 300 299 295 295 299 303 302 298 296 299 300 296 292 292 293 292 289 287 284 279 274 277 284
146 145 143 141 140 140 141 141 140 135 107 33 10 1 2 359 348 345 350 353 356 356 355 356 353 352 353 351 349 347 344 343 344 342 338 335 332 329 327 326 323 321 319 315 312 310 305 300 296 296 298 300 299 300 302 304 302 300 299 300 300 300 298 297 296 296 298 299 297 293 292 295 298 297 295 296 296 295 292 289 284 280 279 281 283
148 147 146 146 145 144 143 142 138 117 47 15 6 1 2 356 343 344 351 351 352 355 354 353 352 352 353 350 346 343 342 344 345 342 337 334 331 330 328 326 325 323 321 318 316 312 309 304 299 297 298 299 300 301 303 304 302 300 300 299 298 297 296 295 296 296 298 299 297 291 283 290 295 296 295 296 297 295 293 290 286 284 284 284 283
151 150 151 150 148 147 145 140 124 81 34 10 6 5 1 350 341 344 348 348 351 353 353 353 352 351 351 347 344 342 342 344 343 339 336 334 331 330 328 326 325 323 320 319 318 314 311 308 304 302 302 302 302 303 304 304 303 303 303 300 298 297 295 292 292 292 295 299 299 294 280 286 294 294 291 294 296 294 292 290 286 285 285 284 283
153 154 156 153 149 146 143 132 104 58 30 12 6 4 358 348 342 343 346 349 352 353 353 354 352 350 350 347 344 342 340 342 341 338 337 335 331 329 327 324 323 321 320 321 322 319 316 313 310 307 305 305 305 306 306 306 306 306 304 298 297 297 294 288 287 289 292 296 299 297 287 285 292 292 291 294 294 292 290 288 285 284 284 284 281
156 157 157 153 146 140 133 119 89 52 22 12 7 2 357 348 342 344 347 349 353 355 355 355 352 350 349 345 343 341 340 339 339 338 338 335 331 327 324 322 320 318 319 321 322 322 320 317 314 312 311 310 310 310 310 310 310 310 305 299 299 299 293 288 290 292 290 292 297 299 292 285 292 293 293 295 294 291 289 286 285 284 284 283 279
158 157 154 149 142 132 124 107 78 48 14 6 4 359 356 350 344 345 348 352 357 359 356 352 350 349 347 343 342 342 340 339 338 336 336 333 329 325 323 321 317 314 317 320 320 321 320 318 316 316 316 316 315 315 315 314 315 314 309 305 305 302 296 293 295 294 289 290 299 304 297 289 294 297 297 298 295 295 294 289 288 290 286 282 280